When you browse on this site, cookies collect data to enhance your experience and personalize the content and advertising you see.
Visit our Privacy Policy to learn more. By continuing to use the site, you agree to this use of cookies and data.
  • en Belgique
  • Liste des pays
  • À 7 jours
  • Température de l'eau
  • Carte satellitaire
  • Carte météo
  • Widgets météo
  • user-avatar
    Se connecter

    Météo par heure à Korçё

    Ce jour, 21 Novembre, Mercredi

    Heure Température Précipitation Vent Pression Humidité
    00:00 +8°C° 3.6 mm 3 m/s 662 mmHg 95%
    01:00 +7°C° 0 mm 2 m/s 662 mmHg 97%
    02:00 +7°C° 1.7 mm 2 m/s 661 mmHg 96%
    03:00 +7°C° 1.7 mm 2 m/s 661 mmHg 96%
    04:00 +7°C° 1.7 mm 2 m/s 661 mmHg 95%
    05:00 +7°C° 0.7 mm 2 m/s 661 mmHg 95%
    06:00 +7°C° 0.7 mm 2 m/s 661 mmHg 95%
    07:00 +7°C° 0 mm 2 m/s 661 mmHg 95%
    08:00 +8°C° 0.1 mm 2 m/s 662 mmHg 90%
    09:00 +9°C° 0.1 mm 2 m/s 662 mmHg 86%
    10:00 +9°C° 0.1 mm 2 m/s 663 mmHg 81%
    11:00 +10°C° 0.1 mm 2 m/s 663 mmHg 79%
    12:00 +10°C° 0.1 mm 2 m/s 663 mmHg 76%
    13:00 +10°C° 0.1 mm 2 m/s 663 mmHg 74%
    14:00 +10°C° 0.1 mm 2 m/s 663 mmHg 78%
    15:00 +9°C° 0.1 mm 2 m/s 663 mmHg 82%
    16:00 +8°C° 0.1 mm 2 m/s 663 mmHg 85%
    17:00 +8°C° 0.1 mm 2 m/s 664 mmHg 88%
    18:00 +7°C° 0.1 mm 2 m/s 664 mmHg 90%
    19:00 +8°C° 0.1 mm 1 m/s 664 mmHg 93%
    20:00 +8°C° 0 mm 1 m/s 665 mmHg 93%
    21:00 +8°C° 0 mm 1 m/s 665 mmHg 93%
    22:00 +8°C° 0 mm 1 m/s 665 mmHg 93%
    23:00 +7°C° 0 mm 1 m/s 665 mmHg 94%

    Demain, 22 Novembre, Jeudi

    Heure Température Précipitation Vent Pression Humidité
    00:00 +7°C° 0 mm 1 m/s 666 mmHg 94%
    01:00 +7°C° 0 mm 1 m/s 666 mmHg 94%
    02:00 +7°C° 0 mm 1 m/s 666 mmHg 94%
    03:00 +7°C° 0 mm 1 m/s 666 mmHg 94%
    04:00 +7°C° 0 mm 1 m/s 666 mmHg 94%
    05:00 +7°C° 0 mm 1 m/s 666 mmHg 94%
    06:00 +6°C° 0 mm 1 m/s 666 mmHg 93%
    07:00 +6°C° 0 mm 1 m/s 666 mmHg 93%
    08:00 +8°C° 0 mm 1 m/s 667 mmHg 87%
    09:00 +9°C° 0 mm 1 m/s 667 mmHg 81%
    10:00 +10°C° 0 mm 1 m/s 668 mmHg 75%
    11:00 +11°C° 0 mm 1 m/s 668 mmHg 72%
    12:00 +11°C° 0 mm 1 m/s 668 mmHg 68%
    13:00 +12°C° 0 mm 2 m/s 668 mmHg 65%
    14:00 +10°C° 0 mm 2 m/s 668 mmHg 69%
    15:00 +10°C° 0 mm 1 m/s 668 mmHg 74%
    16:00 +9°C° 0 mm 1 m/s 668 mmHg 79%
    17:00 +9°C° 0 mm 1 m/s 668 mmHg 82%
    18:00 +8°C° 0 mm 1 m/s 668 mmHg 84%
    19:00 +7°C° 0 mm 1 m/s 668 mmHg 87%
    20:00 +7°C° 0 mm 1 m/s 668 mmHg 87%
    21:00 +7°C° 0 mm 1 m/s 668 mmHg 88%
    22:00 +6°C° 0 mm 1 m/s 669 mmHg 88%
    23:00 +6°C° 0 mm 1 m/s 669 mmHg 88%

    Après-demain, 23 Novembre, Vendredi

    Heure Température Précipitation Vent Pression Humidité
    00:00 +6°C° 0 mm 1 m/s 669 mmHg 87%
    01:00 +6°C° 0 mm 1 m/s 669 mmHg 87%
    02:00 +6°C° 0 mm 1 m/s 669 mmHg 87%
    03:00 +5°C° 0 mm 1 m/s 669 mmHg 87%
    04:00 +5°C° 0 mm 1 m/s 669 mmHg 87%
    05:00 +5°C° 0 mm 1 m/s 669 mmHg 87%
    06:00 +5°C° 0 mm 1 m/s 670 mmHg 87%
    07:00 +5°C° 0 mm 1 m/s 670 mmHg 87%
    08:00 +7°C° 0 mm 1 m/s 670 mmHg 82%
    09:00 +8°C° 0 mm 1 m/s 671 mmHg 76%
    10:00 +10°C° 0 mm 1 m/s 672 mmHg 71%
    11:00 +10°C° 0 mm 1 m/s 672 mmHg 67%
    12:00 +11°C° 0 mm 1 m/s 671 mmHg 64%
    13:00 +12°C° 0 mm 1 m/s 671 mmHg 60%
    14:00 +11°C° 0 mm 1 m/s 671 mmHg 64%
    15:00 +10°C° 0 mm 1 m/s 671 mmHg 68%
    16:00 +9°C° 0 mm 1 m/s 671 mmHg 72%
    17:00 +8°C° 0 mm 1 m/s 671 mmHg 74%
    18:00 +8°C° 0 mm 1 m/s 671 mmHg 77%
    19:00 +7°C° 0 mm 1 m/s 671 mmHg 80%
    20:00 +7°C° 0 mm 1 m/s 671 mmHg 81%
    21:00 +6°C° 0 mm 1 m/s 671 mmHg 82%
    22:00 +6°C° 0 mm 1 m/s 671 mmHg 83%
    23:00 +6°C° 0 mm 1 m/s 671 mmHg 84%

    24 Novembre, Samedi

    Heure Température Précipitation Vent Pression Humidité
    00:00 +5°C° 0 mm 1 m/s 670 mmHg 84%
    01:00 +4°C° 0 mm 2 m/s 670 mmHg 85%
    02:00 +4°C° 0 mm 2 m/s 670 mmHg 84%
    03:00 +4°C° 0 mm 2 m/s 670 mmHg 84%
    04:00 +4°C° 0 mm 2 m/s 670 mmHg 83%
    05:00 +4°C° 0 mm 2 m/s 670 mmHg 82%
    06:00 +4°C° 0 mm 2 m/s 670 mmHg 81%
    07:00 +4°C° 0 mm 2 m/s 669 mmHg 80%
    08:00 +5°C° 0 mm 2 m/s 670 mmHg 75%
    09:00 +7°C° 0 mm 2 m/s 670 mmHg 71%
    10:00 +8°C° 0 mm 2 m/s 671 mmHg 66%
    11:00 +9°C° 0 mm 2 m/s 670 mmHg 65%
    12:00 +10°C° 0 mm 2 m/s 670 mmHg 63%
    13:00 +10°C° 0 mm 2 m/s 670 mmHg 62%
    14:00 +9°C° 0 mm 2 m/s 669 mmHg 67%
    15:00 +9°C° 0 mm 2 m/s 669 mmHg 73%
    16:00 +8°C° 0 mm 2 m/s 669 mmHg 78%
    17:00 +7°C° 0 mm 2 m/s 668 mmHg 80%
    18:00 +7°C° 0 mm 2 m/s 668 mmHg 83%
    19:00 +7°C° 0 mm 2 m/s 668 mmHg 85%
    20:00 +6°C° 0.2 mm 2 m/s 668 mmHg 86%
    21:00 +6°C° 0.2 mm 2 m/s 668 mmHg 87%
    22:00 +6°C° 0.2 mm 2 m/s 668 mmHg 88%
    23:00 +6°C° 0.2 mm 2 m/s 668 mmHg 89%

    25 Novembre, Dimanche

    Heure Température Précipitation Vent Pression Humidité
    00:00 +6°C° 0.2 mm 2 m/s 668 mmHg 90%
    01:00 +5°C° 0.2 mm 2 m/s 667 mmHg 90%
    02:00 +5°C° 0 mm 2 m/s 667 mmHg 90%
    03:00 +5°C° 0 mm 2 m/s 667 mmHg 91%
    04:00 +5°C° 0 mm 2 m/s 666 mmHg 91%
    05:00 +5°C° 0 mm 2 m/s 666 mmHg 91%
    06:00 +5°C° 0 mm 2 m/s 666 mmHg 91%
    07:00 +5°C° 0 mm 2 m/s 666 mmHg 92%
    08:00 +7°C° 0 mm 2 m/s 667 mmHg 87%
    09:00 +8°C° 0 mm 3 m/s 667 mmHg 82%
    10:00 +10°C° 0 mm 3 m/s 667 mmHg 77%
    11:00 +10°C° 0.1 mm 3 m/s 666 mmHg 76%
    12:00 +11°C° 0.1 mm 3 m/s 666 mmHg 76%
    13:00 +12°C° 0.1 mm 2 m/s 665 mmHg 75%
    14:00 +10°C° 1 mm 2 m/s 665 mmHg 80%
    15:00 +9°C° 1 mm 2 m/s 664 mmHg 85%
    16:00 +8°C° 1 mm 2 m/s 664 mmHg 90%
    17:00 +8°C° 1.8 mm 2 m/s 664 mmHg 91%
    18:00 +8°C° 1.8 mm 2 m/s 663 mmHg 92%
    19:00 +8°C° 1.8 mm 2 m/s 663 mmHg 93%
    20:00 +8°C° 2 mm 3 m/s 663 mmHg 93%
    21:00 +8°C° 2 mm 3 m/s 662 mmHg 93%
    22:00 +7°C° 2 mm 3 m/s 662 mmHg 93%
    23:00 +8°C° 1.9 mm 3 m/s 661 mmHg 93%

    26 Novembre, Lundi

    Heure Température Précipitation Vent Pression Humidité
    00:00 +8°C° 1.9 mm 3 m/s 661 mmHg 93%
    01:00 +8°C° 1.9 mm 3 m/s 660 mmHg 92%
    02:00 +8°C° 1.7 mm 3 m/s 660 mmHg 93%
    03:00 +8°C° 1.7 mm 3 m/s 660 mmHg 93%
    04:00 +8°C° 1.7 mm 3 m/s 660 mmHg 94%
    05:00 +8°C° 0.5 mm 2 m/s 660 mmHg 95%
    06:00 +8°C° 0.5 mm 2 m/s 660 mmHg 96%
    07:00 +8°C° 0.5 mm 2 m/s 659 mmHg 96%
    08:00 +8°C° 0.5 mm 2 m/s 660 mmHg 95%
    09:00 +8°C° 0.5 mm 2 m/s 660 mmHg 94%
    10:00 +9°C° 0.5 mm 2 m/s 660 mmHg 92%
    11:00 +8°C° 0.8 mm 2 m/s 660 mmHg 92%
    12:00 +8°C° 0.8 mm 2 m/s 660 mmHg 93%
    13:00 +8°C° 0.8 mm 2 m/s 659 mmHg 93%
    14:00 +8°C° 0.4 mm 2 m/s 660 mmHg 93%
    15:00 +8°C° 0.4 mm 2 m/s 660 mmHg 93%
    16:00 +8°C° 0.4 mm 2 m/s 660 mmHg 93%
    17:00 +8°C° 0.1 mm 1 m/s 660 mmHg 93%
    18:00 +8°C° 0.1 mm 1 m/s 661 mmHg 94%
    19:00 +7°C° 0.1 mm 1 m/s 661 mmHg 94%
    20:00 +7°C° 0 mm 1 m/s 661 mmHg 94%
    21:00 +7°C° 0 mm 1 m/s 661 mmHg 94%
    22:00 +7°C° 0 mm 1 m/s 662 mmHg 93%
    23:00 +6°C° 0 mm 1 m/s 662 mmHg 93%
    Voir plus